Location: *
(42.0175°N, 9.4056°E)
Time: 23:11:49
(UTC+00:00)

Resurs 01 Rocket - Pass Details

Date: 25 August 2019
Orbit: 635 x 643 km, 98.0° (Epoch: 17 September)

Event Time Altitude Azimuth Distance (km) Brightness Sun altitude
Exits shadow 21:00:59 11° 238° (WSW) 1,948 4.2 -27.9°
Maximum altitude 21:03:07 15° 269° (W) 1,728 4.2 -28.2°
Drops below altitude 10° 21:05:36 10° 303° (WNW) 2,027 5.1 -28.5°
Sets 21:08:45 0° 328° (NNW) 2,943 6.3 -28.8°
